• en France
  • Liste des pays
  • À 7 jours
  • Température de l'eau
  • Carte satellitaire
  • Carte météo
  • Widgets météo
  • user-avatar
    Se connecter

    Météo par heure à Kalgoorlie

    Ce jour, 19 Octobre, Vendredi

    Heure Température Précipitation Vent Pression Humidité
    00:00 +12°C° 0 mm 9 m/s 727 mmHg 58%
    01:00 +11°C° 0 mm 9 m/s 727 mmHg 59%
    02:00 +10°C° 0 mm 8 m/s 727 mmHg 60%
    03:00 +10°C° 0 mm 8 m/s 728 mmHg 63%
    04:00 +9°C° 0 mm 8 m/s 729 mmHg 66%
    05:00 +9°C° 0 mm 7 m/s 729 mmHg 68%
    06:00 +10°C° 0 mm 7 m/s 730 mmHg 63%
    07:00 +10°C° 0 mm 7 m/s 731 mmHg 58%
    08:00 +11°C° 0 mm 7 m/s 731 mmHg 52%
    09:00 +14°C° 0 mm 7 m/s 731 mmHg 45%
    10:00 +15°C° 0 mm 7 m/s 732 mmHg 38%
    11:00 +17°C° 0 mm 6 m/s 732 mmHg 31%
    12:00 +19°C° 0 mm 6 m/s 731 mmHg 28%
    13:00 +20°C° 0 mm 5 m/s 731 mmHg 26%
    14:00 +21°C° 0 mm 5 m/s 731 mmHg 24%
    15:00 +21°C° 0 mm 5 m/s 731 mmHg 24%
    16:00 +21°C° 0 mm 4 m/s 731 mmHg 24%
    17:00 +21°C° 0 mm 4 m/s 731 mmHg 24%
    18:00 +20°C° 0 mm 3 m/s 732 mmHg 26%
    19:00 +19°C° 0 mm 2 m/s 732 mmHg 28%
    20:00 +19°C° 0 mm 2 m/s 733 mmHg 31%
    21:00 +18°C° 0 mm 2 m/s 733 mmHg 32%
    22:00 +18°C° 0 mm 1 m/s 733 mmHg 34%
    23:00 +18°C° 0 mm 1 m/s 733 mmHg 36%

    Demain, 20 Octobre, Samedi

    Heure Température Précipitation Vent Pression Humidité
    00:00 +16°C° 0 mm 1 m/s 733 mmHg 38%
    01:00 +16°C° 0 mm 2 m/s 733 mmHg 40%
    02:00 +15°C° 0 mm 2 m/s 732 mmHg 42%
    03:00 +14°C° 0 mm 2 m/s 732 mmHg 44%
    04:00 +14°C° 0 mm 2 m/s 732 mmHg 46%
    05:00 +14°C° 0 mm 2 m/s 732 mmHg 48%
    06:00 +15°C° 0 mm 2 m/s 733 mmHg 42%
    07:00 +17°C° 0 mm 2 m/s 733 mmHg 36%
    08:00 +19°C° 0 mm 3 m/s 733 mmHg 31%
    09:00 +21°C° 0 mm 3 m/s 733 mmHg 28%
    10:00 +22°C° 0 mm 4 m/s 732 mmHg 25%
    11:00 +25°C° 0 mm 4 m/s 732 mmHg 21%
    12:00 +26°C° 0 mm 5 m/s 731 mmHg 20%
    13:00 +27°C° 0 mm 5 m/s 730 mmHg 18%
    14:00 +28°C° 0 mm 5 m/s 730 mmHg 17%
    15:00 +28°C° 0 mm 5 m/s 729 mmHg 16%
    16:00 +28°C° 0 mm 5 m/s 729 mmHg 16%
    17:00 +28°C° 0 mm 5 m/s 729 mmHg 16%
    18:00 +27°C° 0 mm 4 m/s 729 mmHg 18%
    19:00 +26°C° 0 mm 4 m/s 729 mmHg 20%
    20:00 +25°C° 0 mm 3 m/s 729 mmHg 22%
    21:00 +24°C° 0 mm 3 m/s 729 mmHg 23%
    22:00 +22°C° 0 mm 3 m/s 729 mmHg 25%
    23:00 +22°C° 0 mm 3 m/s 729 mmHg 26%

    Après-demain, 21 Octobre, Dimanche

    Heure Température Précipitation Vent Pression Humidité
    00:00 +21°C° 0 mm 3 m/s 728 mmHg 30%
    01:00 +20°C° 0 mm 3 m/s 728 mmHg 34%
    02:00 +19°C° 0 mm 3 m/s 727 mmHg 37%
    03:00 +18°C° 0 mm 4 m/s 727 mmHg 46%
    04:00 +17°C° 0 mm 4 m/s 727 mmHg 54%
    05:00 +15°C° 0 mm 4 m/s 727 mmHg 62%
    06:00 +16°C° 0 mm 5 m/s 728 mmHg 59%
    07:00 +17°C° 0 mm 5 m/s 728 mmHg 56%
    08:00 +19°C° 0 mm 6 m/s 728 mmHg 53%
    09:00 +21°C° 0 mm 7 m/s 728 mmHg 45%
    10:00 +23°C° 0 mm 8 m/s 728 mmHg 38%
    11:00 +26°C° 0 mm 9 m/s 728 mmHg 30%
    12:00 +27°C° 0 mm 9 m/s 727 mmHg 27%
    13:00 +28°C° 0 mm 10 m/s 727 mmHg 25%
    14:00 +29°C° 0 mm 11 m/s 726 mmHg 22%
    15:00 +28°C° 0 mm 11 m/s 726 mmHg 25%
    16:00 +27°C° 0 mm 11 m/s 726 mmHg 28%
    17:00 +26°C° 0 mm 11 m/s 726 mmHg 31%
    18:00 +24°C° 0 mm 10 m/s 726 mmHg 35%
    19:00 +22°C° 0 mm 9 m/s 727 mmHg 39%
    20:00 +21°C° 0 mm 8 m/s 728 mmHg 44%
    21:00 +19°C° 0 mm 9 m/s 728 mmHg 46%
    22:00 +17°C° 0 mm 9 m/s 729 mmHg 49%
    23:00 +16°C° 0 mm 10 m/s 729 mmHg 52%

    22 Octobre, Lundi

    Heure Température Précipitation Vent Pression Humidité
    00:00 +15°C° 0 mm 9 m/s 729 mmHg 54%
    01:00 +12°C° 0 mm 9 m/s 729 mmHg 55%
    02:00 +11°C° 0 mm 8 m/s 729 mmHg 57%
    03:00 +10°C° 0 mm 8 m/s 730 mmHg 58%
    04:00 +10°C° 0 mm 7 m/s 730 mmHg 60%
    05:00 +9°C° 0 mm 7 m/s 731 mmHg 61%
    06:00 +9°C° 0 mm 7 m/s 731 mmHg 55%
    07:00 +10°C° 0 mm 6 m/s 732 mmHg 49%
    08:00 +11°C° 0 mm 6 m/s 732 mmHg 42%
    09:00 +13°C° 0 mm 6 m/s 732 mmHg 37%
    10:00 +15°C° 0 mm 5 m/s 732 mmHg 33%
    11:00 +16°C° 0 mm 5 m/s 732 mmHg 28%
    12:00 +17°C° 0 mm 5 m/s 732 mmHg 26%
    13:00 +19°C° 0 mm 5 m/s 731 mmHg 24%
    14:00 +21°C° 0 mm 4 m/s 731 mmHg 22%
    15:00 +21°C° 0 mm 4 m/s 731 mmHg 21%
    16:00 +21°C° 0 mm 4 m/s 731 mmHg 21%
    17:00 +21°C° 0 mm 5 m/s 731 mmHg 21%
    18:00 +20°C° 0 mm 4 m/s 731 mmHg 23%
    19:00 +19°C° 0 mm 4 m/s 732 mmHg 25%
    20:00 +18°C° 0 mm 3 m/s 733 mmHg 28%
    21:00 +17°C° 0 mm 4 m/s 733 mmHg 33%
    22:00 +15°C° 0 mm 5 m/s 733 mmHg 39%
    23:00 +14°C° 0 mm 6 m/s 733 mmHg 44%

    23 Octobre, Mardi

    Heure Température Précipitation Vent Pression Humidité
    00:00 +13°C° 0 mm 6 m/s 733 mmHg 47%
    01:00 +13°C° 0 mm 6 m/s 732 mmHg 51%
    02:00 +12°C° 0 mm 5 m/s 732 mmHg 54%
    03:00 +12°C° 0 mm 5 m/s 732 mmHg 56%
    04:00 +10°C° 0 mm 5 m/s 732 mmHg 59%
    05:00 +10°C° 0 mm 5 m/s 732 mmHg 61%
    06:00 +12°C° 0 mm 5 m/s 733 mmHg 56%
    07:00 +13°C° 0 mm 5 m/s 733 mmHg 52%
    08:00 +15°C° 0 mm 6 m/s 733 mmHg 47%
    09:00 +16°C° 0 mm 5 m/s 733 mmHg 41%
    10:00 +19°C° 0 mm 5 m/s 732 mmHg 35%
    11:00 +21°C° 0 mm 4 m/s 732 mmHg 30%
    12:00 +22°C° 0 mm 4 m/s 731 mmHg 27%
    13:00 +23°C° 0 mm 4 m/s 730 mmHg 24%
    14:00 +25°C° 0 mm 3 m/s 730 mmHg 21%
    15:00 +25°C° 0 mm 3 m/s 729 mmHg 20%
    16:00 +26°C° 0 mm 3 m/s 729 mmHg 19%
    17:00 +26°C° 0 mm 3 m/s 729 mmHg 18%
    18:00 +25°C° 0 mm 3 m/s 729 mmHg 20%
    19:00 +24°C° 0 mm 3 m/s 729 mmHg 21%
    20:00 +23°C° 0 mm 2 m/s 729 mmHg 22%
    21:00 +22°C° 0 mm 3 m/s 729 mmHg 23%
    22:00 +21°C° 0 mm 3 m/s 728 mmHg 24%
    23:00 +21°C° 0 mm 3 m/s 728 mmHg 24%

    24 Octobre, Mercredi

    Heure Température Précipitation Vent Pression Humidité
    00:00 +20°C° 0 mm 3 m/s 727 mmHg 25%
    01:00 +19°C° 0 mm 4 m/s 727 mmHg 26%
    02:00 +19°C° 0 mm 4 m/s 727 mmHg 27%
    03:00 +18°C° 0 mm 3 m/s 727 mmHg 29%
    04:00 +17°C° 0 mm 3 m/s 727 mmHg 30%
    05:00 +17°C° 0 mm 3 m/s 727 mmHg 32%
    06:00 +18°C° 0 mm 3 m/s 727 mmHg 30%
    07:00 +20°C° 0 mm 4 m/s 728 mmHg 29%
    08:00 +21°C° 0 mm 4 m/s 728 mmHg 28%
    09:00 +23°C° 0 mm 4 m/s 728 mmHg 26%
    10:00 +25°C° 0 mm 5 m/s 727 mmHg 24%
    11:00 +27°C° 0 mm 5 m/s 727 mmHg 22%
    12:00 +27°C° 0 mm 6 m/s 726 mmHg 21%
    13:00 +28°C° 0 mm 7 m/s 726 mmHg 20%
    14:00 +29°C° 0 mm 7 m/s 726 mmHg 19%
    15:00 +28°C° 0 mm 8 m/s 726 mmHg 23%
    16:00 +27°C° 0 mm 8 m/s 726 mmHg 27%
    17:00 +26°C° 0 mm 9 m/s 727 mmHg 32%
    18:00 +23°C° 0 mm 8 m/s 727 mmHg 35%
    19:00 +22°C° 0 mm 8 m/s 728 mmHg 38%
    20:00 +21°C° 0 mm 7 m/s 728 mmHg 41%
    21:00 +20°C° 0 mm 7 m/s 729 mmHg 45%
    22:00 +18°C° 0 mm 7 m/s 729 mmHg 48%
    23:00 +17°C° 0 mm 7 m/s 729 mmHg 52%
    Voir plus